Location: Isle of Man Observatory
(54.1776°N, 4.6264°W)
Time: 18:50:42
(UTC+01:00)

Envisat - Visible Passes

Search period start: 30 November 2023 00:00
Search period end: 10 December 2023 00:00
Orbit: 762 x 764 km, 98.3° (Epoch: 30 November)

Date Brightness Start Highest point End Pass type
(mag) Time Alt. Az. Time Alt. Az. Time Alt. Az.
30 Nov 4.9 05:44:26 10° N 05:45:51 19° N 05:45:51 19° N visible
30 Nov 4.9 07:25:02 10° NNW 07:26:00 12° NNW 07:26:00 12° NNW visible
01 Dec 5.3 05:07:05 10° NNE 05:08:04 16° NNE 05:08:04 16° NNE visible
01 Dec 4.8 06:46:50 10° N 06:48:13 16° NNW 06:48:13 16° NNW visible
02 Dec 5.8 04:29:58 10° NNE 04:30:16 12° NNE 04:30:16 12° NNE visible
02 Dec 4.9 06:09:07 10° N 06:10:26 17° N 06:10:26 17° N visible
03 Dec 5.2 05:31:38 10° NNE 05:32:39 16° N 05:32:39 16° N visible
03 Dec 4.9 07:11:52 10° NNW 07:12:49 13° NNW 07:12:49 13° NNW visible
04 Dec 5.6 04:54:22 10° NNE 04:54:52 13° NNE 04:54:52 13° NNE visible
04 Dec 4.9 06:33:53 10° N 06:35:02 15° NNW 06:35:02 15° NNW visible
05 Dec 5.1 05:56:16 10° N 05:57:15 16° N 05:57:15 16° N visible
06 Dec 5.4 05:18:51 10° NNE 05:19:29 14° NNE 05:19:29 14° NNE visible
06 Dec 5.0 06:58:49 10° N 06:59:39 13° NNW 06:59:39 13° NNW visible
07 Dec 5.8 04:41:39 10° NNE 04:41:43 10° NNE 04:41:43 10° NNE visible
07 Dec 5.1 06:20:59 10° N 06:21:52 14° N 06:21:52 14° N visible
07 Dec 6.0 17:46:09 10° W 17:47:47 11° W 17:49:26 10° WNW visible
08 Dec 5.3 05:43:26 10° N 05:44:06 14° N 05:44:06 14° N visible
08 Dec 5.1 07:24:01 10° NNW 07:24:16 11° NNW 07:24:16 11° NNW visible
09 Dec 5.6 05:06:05 10° NNE 05:06:21 11° NNE 05:06:21 11° NNE visible
09 Dec 5.1 06:45:49 10° N 06:46:30 13° N 06:46:30 13° N visible
